Tracking 29892 objects as of 21-Nov-2024
HD Live streaming from Space Station
objects crossing your sky now

COSMOS 1299

Track COSMOS 1299 now!
10-day predictions
COSMOS 1299 is classified as:


NORAD ID: 12783
Int'l Code: 1981-081A
Perigee: 924.9 km
Apogee: 978.3 km
Inclination: 65.1 °
Period: 103.9 minutes
Semi major axis: 7322 km
RCS: 2.89 m2 (large)
Launch date: August 24, 1981
Source: Commonwealth of Independent States (former USSR) (CIS)
Launch site: TYURATAM MISSILE AND SPACE COMPLEX (TTMTR)
Your satellite tracking list
Your tracking list is empty




NASA's NSSDC Master Catalog

Two Line Element Set (TLE):
1 12783U 81081A   24325.39397744 -.00000054  00000-0  29794-4 0  9996
2 12783  65.1143 125.3814 0036462 353.5307   6.5279 13.85487243187789
Source of the keplerian elements: AFSPC